Powrót do katalogu

FALCON 9 R/B

AktywnyHEO
NORAD 44869·ROCKET BODY·🇺🇸 United States

Wystrzelony Dec 17, 2019 z Cape Canaveral Space Force Station

Loading…

Następne Przeloty (najbliższe 24 godziny)

TLE

ŚwieżeSource: Space-Track

Epoka: Sep 13, 2026, 20:10 UTC

1 44869U 19091B   26256.84042575  .00002273  00000-0  62313-3 0  9999
2 44869  26.9096 133.1204 5801196 183.7166 168.6985  4.31921221102923

Śledź FALCON 9 R/B w czasie rzeczywistym z AllMySat

Download on the App Store